Wind_Speed
4 4 3 2 2 2 3 5 4 5 5 6 6 7 7 7 7 7 6 6 6 5 5 4 4 4 5 5 5 5 5 5 5 5 5 5 5 5 5 5 5 5 6
4 3 3 2 2 2 3 4 4 5 5 6 6 7 6 7 7 6 6 6 5 5 5 4 4 4 5 5 5 5 5 5 5 5 5 6 5 5 5 5 5 5 5
4 3 2 2 1 1 2 3 4 5 5 5 6 6 6 6 6 6 6 5 5 5 4 4 5 4 4 4 5 5 5 5 4 4 5 5 5 5 5 5 5 5 5
4 3 3 2 1 1 1 3 4 4 5 5 6 6 6 6 6 6 6 5 5 4 4 4 4 4 4 4 4 5 5 4 3 4 4 5 5 5 5 5 5 5 5
3 3 2 2 1 0 1 2 3 4 4 5 5 5 5 5 5 5 5 5 5 5 4 4 4 4 4 4 4 4 4 4 3 4 4 4 5 5 4 4 4 4 4
2 1 1 0 1 1 2 2 2 3 3 4 4 5 5 4 4 4 4 4 4 4 4 4 4 4 4 4 4 4 3 3 3 3 3 4 4 4 4 3 3 3 4
2 1 1 1 2 3 3 3 3 3 3 4 4 4 4 4 4 4 4 4 4 3 3 4 4 4 4 4 4 4 3 3 3 3 3 3 3 3 4 3 2 2 3
3 1 1 1 2 3 4 4 4 4 4 4 4 4 4 4 4 3 3 3 3 3 3 4 4 4 5 4 4 4 3 3 3 3 3 3 3 3 3 3 3 2 2
5 3 2 2 2 3 4 5 5 5 5 5 5 4 4 4 4 3 2 3 3 3 4 4 5 5 5 4 4 4 3 3 2 2 2 2 2 2 2 3 2 2 1
8 5 3 2 3 3 4 5 5 6 6 6 5 5 5 4 4 3 3 3 3 4 4 4 4 4 4 4 3 3 3 3 2 1 1 1 1 1 2 2 2 2 1
9 7 4 3 3 4 5 5 5 6 6 6 6 6 6 5 4 4 3 3 3 4 4 4 4 4 3 3 3 3 2 2 2 1 1 1 1 1 1 1 2 2 2
11 8 6 4 4 4 4 5 5 6 6 7 6 6 6 5 4 4 4 3 3 4 4 4 3 3 3 3 3 3 2 1 1 1 1 0 0 1 1 1 2 2 2
12 10 8 6 5 5 5 5 5 6 6 6 6 6 6 5 4 4 4 4 3 4 4 4 3 3 3 3 2 2 2 1 1 0 0 0 0 0 1 1 2 2 2
13 12 10 8 6 6 6 6 6 5 5 5 5 5 5 4 4 4 4 4 4 4 4 4 3 3 3 3 3 3 3 2 1 1 1 1 1 1 1 1 2 2 2
14 13 11 9 7 7 6 6 5 4 5 5 4 5 5 4 3 4 4 5 4 4 4 3 3 3 3 2 2 3 3 2 2 1 1 1 2 2 2 2 3 3 3
14 13 11 9 9 8 7 7 5 5 4 4 5 5 5 5 4 4 4 5 5 5 4 4 4 3 2 2 2 3 3 2 2 2 2 2 2 3 3 3 4 4 3
14 13 11 9 9 8 8 6 5 5 5 5 5 6 6 5 5 4 4 4 5 5 5 4 4 4 3 2 2 3 3 3 3 3 3 3 3 4 4 4 4 5 4
14 13 12 10 10 9 8 6 6 5 4 5 6 7 7 6 6 5 5 5 4 5 5 5 5 5 4 4 3 3 4 4 4 4 4 4 5 5 5 5 5 5 5
14 13 12 11 11 10 8 6 6 5 4 5 6 7 8 7 7 6 6 6 6 6 6 6 6 6 5 5 5 4 5 5 5 5 6 6 6 6 6 6 7 7 7
15 14 12 11 11 10 7 6 5 5 4 4 5 6 8 9 8 7 7 6 6 6 7 7 7 7 7 7 6 6 6 7 6 6 6 6 7 7 7 8 8 9 9
15 15 13 11 11 9 8 7 4 5 5 4 5 6 8 9 9 9 8 8 7 7 7 8 9 9 9 8 8 8 8 8 8 8 8 8 8 8 8 9 9 10 10
16 15 13 12 11 9 8 7 6 5 5 5 6 6 7 9 10 10 10 10 9 9 8 9 10 10 9 9 9 9 9 9 8 9 9 10 10 10 10 10 10 11 11
16 14 13 12 10 9 8 7 6 6 6 6 6 7 7 8 9 10 10 10 10 9 9 10 10 10 10 10 11 11 10 10 10 10 10 10 11 11 12 12 11 12 12
15 14 13 11 10 9 8 7 7 7 7 6 6 6 7 8 8 9 10 10 10 10 10 10 10 11 11 11 11 12 12 12 12 11 11 11 11 12 13 12 13 13 13
15 14 13 12 11 10 10 9 8 7 7 7 7 7 8 9 9 10 10 10 11 11 11 11 11 11 12 12 12 13 14 14 14 13 13 13 13 13 14 15 15 14 15
15 14 13 12 11 10 10 9 8 8 8 8 8 8 9 9 10 11 11 11 12 12 12 12 12 13 13 14 14 14 15 15 15 15 15 15 15 16 16 17 17 17 17
Wind_Direction
88 92 94 97 106 141 161 169 170 168 166 165 165 164 159 154 151 146 144 144 139 134 125 123 123 119 111 108 108 104 105 103 94 88 84 85 86 86 81 79 87 83 88
77 88 91 96 105 145 165 173 176 179 178 172 169 166 162 159 156 153 153 152 148 143 136 132 128 122 118 111 111 107 105 100 95 86 82 84 85 84 79 79 80 85 91
70 78 86 91 109 163 187 183 178 179 184 183 180 178 176 171 163 160 162 159 155 150 144 142 136 130 123 117 117 112 108 101 95 87 84 84 83 83 81 80 80 80 85
61 66 79 94 93 143 201 204 190 185 190 190 188 188 187 182 174 169 170 167 163 155 148 144 134 131 124 118 119 114 112 109 97 87 87 85 84 83 83 83 81 79 78
61 57 67 86 79 178 222 212 203 201 196 191 189 186 184 183 178 173 172 173 170 160 155 152 141 134 129 120 119 120 116 114 96 86 86 86 85 84 77 82 77 80 74
46 41 43 114 263 252 242 239 228 222 219 205 195 192 192 193 189 183 173 170 169 166 158 157 149 144 138 134 127 122 116 111 93 87 89 90 90 85 76 76 71 78 73
28 359 303 263 253 251 247 242 242 241 231 223 208 196 199 205 203 193 179 176 175 172 166 170 159 152 146 138 135 129 121 109 98 104 100 96 94 86 76 68 64 68 75
14 344 291 277 268 257 251 244 240 244 241 237 225 212 212 214 203 192 183 179 173 166 159 154 154 152 147 143 142 138 127 116 110 105 95 92 92 84 76 66 58 47 67
19 5 331 312 288 273 263 253 252 248 245 241 232 221 218 212 196 188 175 173 164 156 151 149 150 146 143 147 145 144 139 134 119 108 100 89 83 82 73 64 56 40 27
12 2 344 314 293 277 270 261 258 255 251 244 235 224 222 214 202 189 183 171 165 162 158 152 150 148 147 151 153 151 154 145 132 125 125 111 76 72 64 50 37 18 1
9 3 355 326 306 290 279 268 266 264 256 247 239 232 228 224 210 189 186 184 177 172 165 158 154 152 155 160 163 162 162 152 152 148 148 139 87 53 39 21 8 360 342
10 4 352 332 314 297 290 278 272 264 256 251 242 236 228 225 215 195 192 188 180 180 174 168 169 171 168 171 173 169 163 164 156 149 163 154 47 355 344 349 348 342 328
4 1 354 339 322 301 290 281 279 267 254 253 248 239 234 227 220 206 200 198 185 175 176 179 188 186 188 188 183 184 184 181 195 178 212 232 321 324 318 327 328 322 322
359 358 353 345 326 312 302 292 285 275 263 255 253 244 238 234 220 205 205 200 193 185 186 192 197 201 208 213 215 206 200 185 204 225 240 257 283 310 300 304 321 310 291
1 359 356 346 344 330 316 307 293 281 264 254 247 242 230 229 226 214 214 208 203 202 196 197 198 200 206 207 205 203 202 208 205 227 259 276 283 289 286 299 310 306 288
1 1 357 354 350 341 327 316 300 279 258 239 238 238 230 235 243 230 224 221 219 217 215 208 210 209 218 216 208 214 226 234 235 241 264 276 285 290 290 297 306 307 297
2 3 359 352 347 339 332 320 308 282 269 252 243 240 238 237 243 238 227 230 225 228 226 222 223 228 232 230 234 236 240 245 245 254 270 276 282 285 290 300 307 307 300
360 360 359 352 348 342 334 326 317 310 283 256 242 239 239 235 241 244 240 239 239 246 239 232 234 240 245 245 249 254 257 256 259 263 268 274 280 281 284 290 302 305 303
357 355 353 352 352 346 338 330 322 314 301 272 253 242 235 233 234 240 245 246 247 250 245 242 245 249 252 257 260 266 271 270 269 269 273 277 281 281 283 287 294 299 296
349 349 347 347 348 350 344 334 324 314 308 282 262 249 240 236 235 239 246 252 253 255 254 253 253 253 256 262 266 267 267 273 276 276 276 280 285 286 285 286 289 292 293
345 346 343 339 343 343 341 336 331 313 313 290 271 260 249 244 242 243 250 255 257 258 260 260 258 257 259 265 270 271 271 273 277 279 280 282 283 286 287 285 286 291 291
343 342 339 338 336 340 342 343 339 323 307 294 280 269 255 251 249 244 253 256 258 264 266 263 262 262 263 265 268 271 274 275 275 282 281 284 285 287 288 288 286 290 288
342 340 338 337 337 338 339 340 336 328 316 303 289 280 269 259 256 247 249 255 259 265 267 264 264 263 265 268 267 267 269 275 280 283 284 286 288 285 285 284 285 291 289
339 338 338 335 332 331 333 331 327 323 316 297 290 282 274 266 260 250 250 257 260 265 267 267 268 267 267 271 271 270 268 269 274 279 284 287 289 286 286 287 286 289 290
335 335 331 328 325 321 324 324 322 318 313 297 285 283 276 268 264 260 258 258 262 262 266 269 271 268 269 271 273 273 273 272 273 276 280 283 285 285 286 286 288 287 290
334 332 330 325 323 320 320 322 324 321 316 305 289 284 280 275 270 266 262 261 261 264 268 270 270 272 272 273 273 273 273 274 275 277 277 278 280 282 284 285 284 286 288
Height
5893 5892 5893 5893 5893 5894 5894 5895 5895 5895 5895 5895 5896 5896 5896 5897 5897 5897 5898 5898 5899 5899 5899 5899 5900 5900 5901 5901 5901 5901 5902 5902 5902 5903 5903 5903 5903 5904 5904 5904 5905 5905 5905
5894 5894 5894 5894 5895 5895 5896 5896 5896 5896 5896 5896 5897 5897 5897 5898 5898 5898 5898 5899 5899 5900 5900 5900 5901 5901 5901 5902 5902 5902 5903 5903 5903 5903 5904 5904 5904 5905 5905 5905 5906 5906 5906
5895 5895 5895 5895 5896 5896 5897 5897 5897 5897 5897 5897 5897 5898 5898 5898 5898 5899 5899 5899 5900 5900 5900 5901 5901 5902 5902 5902 5902 5903 5903 5904 5904 5904 5904 5905 5905 5906 5906 5907 5907 5907 5908
5895 5896 5896 5896 5897 5897 5897 5898 5898 5898 5898 5898 5898 5898 5899 5899 5899 5899 5900 5900 5901 5901 5901 5902 5902 5902 5902 5903 5903 5904 5904 5904 5905 5905 5905 5906 5906 5906 5907 5907 5908 5908 5908
5896 5896 5897 5897 5897 5898 5898 5898 5898 5898 5899 5899 5899 5899 5899 5900 5900 5900 5900 5901 5901 5901 5902 5902 5902 5903 5903 5903 5904 5904 5905 5905 5905 5906 5906 5907 5907 5907 5908 5908 5908 5909 5909
5897 5897 5897 5897 5898 5898 5898 5899 5899 5899 5899 5899 5899 5899 5900 5900 5900 5900 5901 5901 5901 5902 5902 5903 5903 5904 5904 5904 5905 5905 5906 5906 5906 5907 5907 5907 5908 5908 5908 5909 5909 5909 5910
5898 5898 5898 5898 5898 5899 5899 5899 5899 5899 5899 5900 5900 5900 5900 5900 5901 5901 5901 5901 5902 5902 5902 5903 5904 5904 5904 5905 5905 5906 5906 5907 5907 5908 5908 5908 5909 5909 5909 5909 5910 5910 5910
5899 5898 5898 5898 5898 5899 5899 5899 5900 5900 5900 5900 5900 5900 5900 5901 5901 5901 5901 5901 5902 5902 5903 5903 5904 5904 5905 5905 5906 5907 5907 5908 5908 5908 5909 5909 5909 5909 5910 5910 5910 5911 5911
5899 5899 5898 5898 5898 5899 5899 5899 5900 5900 5900 5900 5900 5900 5901 5901 5901 5901 5902 5902 5902 5903 5903 5904 5904 5905 5905 5906 5906 5907 5908 5908 5909 5909 5909 5909 5910 5910 5910 5911 5911 5911 5911
5900 5899 5899 5899 5899 5899 5899 5899 5899 5900 5900 5900 5900 5901 5901 5901 5902 5902 5902 5902 5903 5903 5904 5904 5905 5905 5906 5906 5907 5907 5908 5908 5909 5909 5910 5910 5910 5910 5911 5911 5911 5911 5911
5900 5899 5899 5899 5899 5899 5899 5899 5899 5899 5899 5900 5900 5900 5901 5901 5902 5902 5902 5903 5903 5904 5904 5905 5905 5906 5906 5907 5907 5908 5908 5909 5909 5910 5910 5910 5910 5911 5911 5911 5911 5911 5911
5901 5900 5899 5898 5898 5898 5898 5898 5898 5898 5899 5899 5899 5900 5900 5901 5901 5902 5902 5903 5903 5904 5904 5905 5906 5906 5906 5907 5907 5908 5909 5909 5909 5910 5910 5910 5911 5911 5911 5911 5911 5911 5911
5901 5900 5899 5898 5898 5897 5897 5897 5897 5897 5898 5898 5899 5900 5900 5900 5901 5902 5902 5903 5904 5904 5905 5906 5906 5906 5907 5907 5907 5908 5909 5909 5910 5910 5910 5910 5911 5911 5911 5911 5911 5911 5911
5901 5900 5899 5897 5897 5896 5896 5897 5897 5896 5897 5898 5898 5899 5900 5901 5901 5902 5903 5903 5904 5905 5905 5906 5906 5907 5907 5907 5908 5908 5909 5909 5910 5910 5910 5910 5910 5911 5911 5911 5911 5911 5911
5902 5900 5899 5896 5896 5896 5895 5896 5896 5895 5896 5897 5898 5899 5900 5901 5901 5902 5903 5903 5904 5905 5905 5906 5906 5907 5907 5907 5908 5908 5908 5909 5909 5910 5910 5910 5910 5910 5911 5911 5911 5910 5910
5902 5901 5898 5896 5896 5896 5895 5895 5895 5895 5896 5896 5897 5898 5899 5900 5901 5902 5903 5903 5904 5905 5905 5906 5906 5907 5907 5907 5908 5908 5908 5909 5909 5909 5909 5910 5910 5910 5910 5910 5910 5910 5910
5903 5901 5899 5897 5896 5895 5895 5894 5894 5895 5895 5896 5897 5898 5899 5900 5901 5901 5902 5903 5904 5905 5905 5906 5906 5907 5907 5907 5907 5908 5908 5908 5908 5908 5909 5909 5909 5909 5909 5909 5909 5909 5909
5902 5901 5899 5898 5897 5895 5894 5894 5894 5894 5895 5895 5896 5897 5898 5899 5900 5901 5902 5902 5903 5904 5905 5905 5906 5906 5907 5907 5907 5907 5907 5907 5908 5908 5908 5908 5908 5908 5908 5908 5908 5908 5908
5903 5901 5899 5898 5896 5895 5894 5893 5894 5894 5894 5894 5895 5896 5897 5898 5899 5900 5901 5902 5903 5903 5904 5905 5905 5906 5906 5906 5907 5907 5907 5907 5907 5907 5907 5907 5907 5907 5907 5907 5907 5907 5907
5903 5900 5899 5898 5896 5895 5894 5893 5893 5893 5893 5894 5894 5895 5896 5897 5898 5899 5900 5901 5902 5902 5903 5904 5904 5904 5905 5905 5906 5906 5906 5906 5906 5906 5906 5905 5905 5905 5905 5905 5905 5905 5905
5902 5900 5899 5898 5896 5895 5894 5893 5893 5893 5893 5893 5894 5894 5894 5895 5897 5898 5899 5900 5901 5901 5902 5902 5902 5903 5903 5904 5905 5905 5905 5904 5904 5904 5904 5904 5904 5904 5904 5903 5902 5903 5902
5902 5900 5898 5897 5896 5895 5894 5892 5892 5892 5892 5892 5893 5893 5893 5894 5894 5896 5897 5898 5899 5900 5900 5900 5900 5901 5902 5902 5903 5903 5903 5903 5902 5903 5902 5901 5902 5901 5901 5901 5900 5900 5900
5901 5899 5897 5896 5895 5894 5894 5893 5892 5892 5891 5891 5891 5892 5892 5892 5893 5894 5895 5896 5897 5898 5898 5898 5899 5899 5899 5900 5900 5901 5901 5901 5901 5901 5900 5900 5900 5899 5899 5898 5898 5898 5897
5900 5899 5897 5895 5895 5894 5893 5892 5892 5891 5891 5890 5890 5890 5891 5891 5891 5892 5893 5894 5895 5896 5896 5896 5897 5897 5897 5897 5898 5898 5899 5899 5899 5899 5898 5898 5897 5896 5896 5894 5895 5895 5894
5900 5898 5896 5895 5894 5893 5893 5892 5891 5890 5890 5889 5889 5889 5889 5889 5890 5890 5891 5892 5893 5893 5894 5894 5894 5894 5895 5895 5895 5895 5896 5896 5896 5896 5896 5895 5894 5894 5893 5892 5892 5891 5891
5899 5897 5896 5894 5893 5892 5891 5891 5890 5889 5889 5888 5887 5887 5887 5887 5888 5888 5889 5889 5890 5891 5891 5891 5891 5892 5892 5892 5892 5892 5892 5892 5892 5892 5892 5892 5891 5890 5889 5889 5888 5888 5888